QPF
0.00 0.00 0.00 0.00 0.00 0.00 0.00 0.00 0.00 0.00 0.00 0.00 0.00 0.00 0.00 0.00 0.00 0.00 0.00 0.00 0.00 0.00 0.00 0.00 0.00 0.00 0.00 0.00 0.00 0.00 0.00 0.00 0.00 0.00 0.00 0.00 0.00 0.00 0.00 0.00 0.00 0.00 0.00 0.00
0.00 0.00 0.00 0.00 0.00 0.00 0.00 0.00 0.00 0.00 0.00 0.00 0.00 0.00 0.00 0.00 0.00 0.00 0.00 0.00 0.00 0.00 0.00 0.00 0.00 0.00 0.00 0.00 0.00 0.00 0.00 0.00 0.00 0.00 0.00 0.00 0.00 0.00 0.00 0.00 0.00 0.00 0.00 0.00
0.00 0.00 0.00 0.00 0.00 0.00 0.00 0.00 0.00 0.00 0.00 0.00 0.00 0.00 0.00 0.00 0.00 0.00 0.00 0.00 0.00 0.00 0.00 0.00 0.00 0.00 0.00 0.00 0.00 0.00 0.00 0.00 0.00 0.00 0.00 0.00 0.00 0.00 0.00 0.00 0.00 0.00 0.00 0.00
0.00 0.00 0.00 0.00 0.00 0.00 0.00 0.00 0.00 0.00 0.00 0.00 0.00 0.00 0.00 0.00 0.00 0.00 0.00 0.00 0.00 0.00 0.00 0.00 0.00 0.00 0.00 0.00 0.00 0.00 0.00 0.00 0.00 0.00 0.00 0.00 0.00 0.00 0.00 0.00 0.00 0.00 0.00 0.00
0.00 0.00 0.00 0.00 0.00 0.00 0.00 0.00 0.00 0.00 0.00 0.00 0.00 0.00 0.00 0.00 0.00 0.00 0.00 0.00 0.00 0.00 0.00 0.00 0.00 0.00 0.00 0.00 0.00 0.00 0.00 0.00 0.00 0.00 0.00 0.00 0.00 0.00 0.00 0.00 0.00 0.00 0.00 0.00
0.00 0.00 0.00 0.00 0.00 0.00 0.00 0.00 0.00 0.00 0.00 0.00 0.00 0.00 0.00 0.00 0.00 0.00 0.00 0.00 0.00 0.00 0.00 0.00 0.00 0.00 0.00 0.00 0.00 0.00 0.00 0.00 0.00 0.00 0.00 0.00 0.00 0.00 0.00 0.00 0.00 0.00 0.00 0.00
0.00 0.00 0.00 0.00 0.00 0.00 0.00 0.00 0.00 0.00 0.00 0.00 0.00 0.00 0.00 0.00 0.00 0.00 0.00 0.00 0.00 0.00 0.00 0.00 0.00 0.00 0.00 0.00 0.00 0.00 0.00 0.00 0.00 0.00 0.00 0.00 0.00 0.00 0.00 0.00 0.00 0.00 0.00 0.00
0.00 0.00 0.00 0.00 0.00 0.00 0.00 0.00 0.00 0.00 0.00 0.00 0.00 0.00 0.00 0.00 0.00 0.00 0.00 0.00 0.00 0.00 0.00 0.00 0.00 0.00 0.00 0.00 0.00 0.00 0.00 0.00 0.00 0.00 0.00 0.00 0.00 0.00 0.00 0.00 0.00 0.00 0.00 0.00
0.00 0.00 0.00 0.00 0.00 0.00 0.00 0.00 0.00 0.00 0.00 0.00 0.00 0.00 0.00 0.00 0.00 0.00 0.00 0.00 0.00 0.00 0.00 0.00 0.00 0.00 0.00 0.00 0.00 0.00 0.00 0.00 0.00 0.00 0.00 0.00 0.00 0.00 0.00 0.00 0.00 0.00 0.00 0.00
0.00 0.00 0.00 0.00 0.00 0.00 0.00 0.00 0.00 0.00 0.00 0.00 0.00 0.00 0.00 0.00 0.00 0.00 0.00 0.00 0.00 0.00 0.00 0.00 0.00 0.00 0.00 0.00 0.00 0.00 0.00 0.00 0.00 0.00 0.00 0.00 0.00 0.00 0.00 0.00 0.00 0.00 0.00 0.00
0.00 0.00 0.00 0.00 0.00 0.00 0.00 0.00 0.00 0.00 0.00 0.00 0.00 0.00 0.00 0.00 0.00 0.00 0.00 0.00 0.00 0.00 0.00 0.00 0.00 0.00 0.00 0.00 0.00 0.00 0.00 0.00 0.00 0.00 0.00 0.00 0.00 0.00 0.00 0.00 0.00 0.00 0.00 0.00
0.00 0.00 0.00 0.00 0.00 0.00 0.00 0.00 0.00 0.00 0.00 0.00 0.00 0.00 0.00 0.00 0.00 0.00 0.00 0.00 0.00 0.00 0.00 0.00 0.00 0.00 0.00 0.00 0.00 0.00 0.00 0.00 0.00 0.00 0.00 0.00 0.00 0.00 0.00 0.00 0.00 0.00 0.00 0.00
0.00 0.00 0.00 0.00 0.00 0.00 0.00 0.00 0.00 0.00 0.00 0.00 0.00 0.00 0.00 0.00 0.00 0.00 0.00 0.00 0.00 0.00 0.00 0.00 0.00 0.00 0.00 0.00 0.00 0.00 0.00 0.00 0.00 0.00 0.00 0.00 0.00 0.00 0.00 0.00 0.00 0.00 0.00 0.00
0.00 0.00 0.00 0.00 0.00 0.00 0.00 0.00 0.00 0.00 0.00 0.00 0.00 0.00 0.00 0.00 0.00 0.00 0.00 0.00 0.00 0.00 0.00 0.00 0.00 0.00 0.00 0.00 0.00 0.00 0.00 0.00 0.00 0.00 0.00 0.00 0.00 0.00 0.00 0.00 0.00 0.00 0.00 0.00
0.00 0.00 0.00 0.00 0.00 0.00 0.00 0.00 0.00 0.00 0.00 0.00 0.00 0.00 0.00 0.00 0.00 0.00 0.00 0.00 0.00 0.00 0.00 0.00 0.00 0.00 0.00 0.00 0.00 0.00 0.00 0.00 0.00 0.00 0.00 0.00 0.00 0.00 0.00 0.00 0.00 0.00 0.00 0.00
0.00 0.00 0.00 0.00 0.00 0.00 0.00 0.00 0.00 0.00 0.00 0.00 0.00 0.00 0.00 0.00 0.00 0.00 0.00 0.00 0.00 0.00 0.00 0.00 0.00 0.00 0.00 0.00 0.00 0.00 0.00 0.00 0.00 0.00 0.00 0.00 0.00 0.00 0.00 0.00 0.00 0.00 0.00 0.00
0.00 0.00 0.00 0.00 0.00 0.00 0.00 0.00 0.00 0.00 0.00 0.00 0.00 0.00 0.00 0.00 0.00 0.00 0.00 0.00 0.00 0.00 0.00 0.00 0.00 0.00 0.00 0.00 0.00 0.00 0.00 0.00 0.00 0.00 0.00 0.00 0.00 0.00 0.00 0.00 0.00 0.00 0.00 0.00
0.00 0.00 0.00 0.00 0.01 0.03 0.00 0.00 0.00 0.00 0.00 0.00 0.00 0.00 0.00 0.00 0.00 0.00 0.00 0.00 0.00 0.00 0.00 0.00 0.00 0.00 0.00 0.00 0.00 0.00 0.00 0.00 0.00 0.00 0.00 0.00 0.00 0.00 0.00 0.00 0.00 0.00 0.00 0.00
0.02 0.05 0.06 0.03 0.02 0.01 0.00 0.00 0.00 0.00 0.00 0.00 0.00 0.00 0.00 0.00 0.00 0.00 0.00 0.00 0.00 0.00 0.00 0.00 0.00 0.00 0.00 0.00 0.00 0.00 0.00 0.00 0.00 0.00 0.00 0.00 0.00 0.00 0.00 0.00 0.00 0.00 0.00 0.00
0.01 0.01 0.01 0.00 0.00 0.00 0.00 0.00 0.00 0.00 0.00 0.00 0.00 0.00 0.00 0.00 0.00 0.00 0.00 0.00 0.00 0.00 0.00 0.00 0.00 0.00 0.00 0.00 0.00 0.00 0.00 0.00 0.00 0.00 0.00 0.00 0.00 0.00 0.00 0.00 0.00 0.00 0.00 0.00
0.00 0.00 0.00 0.00 0.00 0.00 0.00 0.00 0.00 0.00 0.00 0.00 0.00 0.00 0.00 0.00 0.00 0.00 0.00 0.01 0.00 0.00 0.00 0.00 0.00 0.00 0.00 0.00 0.00 0.00 0.00 0.00 0.00 0.00 0.00 0.00 0.00 0.00 0.00 0.00 0.00 0.00 0.00 0.00
0.00 0.00 0.00 0.00 0.00 0.00 0.00 0.00 0.00 0.00 0.00 0.00 0.00 0.00 0.00 0.00 0.00 0.00 0.01 0.00 0.00 0.00 0.00 0.00 0.00 0.00 0.00 0.00 0.00 0.00 0.00 0.00 0.00 0.00 0.00 0.00 0.00 0.00 0.00 0.00 0.00 0.00 0.00 0.00
0.00 0.00 0.00 0.00 0.00 0.00 0.00 0.00 0.00 0.00 0.00 0.00 0.00 0.00 0.00 0.00 0.00 0.00 0.00 0.00 0.00 0.00 0.00 0.00 0.00 0.00 0.00 0.00 0.00 0.00 0.00 0.00 0.00 0.00 0.00 0.00 0.00 0.00 0.00 0.00 0.00 0.00 0.00 0.00
0.00 0.00 0.00 0.00 0.00 0.00 0.00 0.00 0.00 0.00 0.00 0.00 0.00 0.00 0.00 0.00 0.00 0.00 0.00 0.00 0.00 0.00 0.00 0.00 0.00 0.00 0.00 0.00 0.00 0.00 0.00 0.00 0.00 0.00 0.00 0.00 0.00 0.00 0.00 0.00 0.00 0.00 0.00 0.00
0.00 0.00 0.00 0.00 0.00 0.00 0.00 0.00 0.00 0.00 0.00 0.00 0.00 0.00 0.00 0.00 0.00 0.00 0.00 0.00 0.00 0.00 0.00 0.00 0.00 0.00 0.00 0.00 0.00 0.00 0.00 0.00 0.00 0.00 0.00 0.00 0.00 0.00 0.00 0.00 0.00 0.00 0.00 0.00
0.00 0.00 0.00 0.00 0.00 0.00 0.01 0.01 0.00 0.00 0.00 0.00 0.00 0.00 0.00 0.00 0.00 0.00 0.00 0.00 0.00 0.00 0.00 0.00 0.00 0.00 0.00 0.00 0.00 0.00 0.00 0.00 0.00 0.00 0.00 0.00 0.00 0.00 0.00 0.00 0.00 0.00 0.00 0.00
MSLP
1010.79 1010.90 1010.44 1010.30 1010.37 1010.30 1010.23 1010.73 1010.88 1010.92 1011.89 1012.42 1012.69 1012.60 1012.48 1012.65 1013.19 1013.45 1014.02 1014.90 1015.90 1016.62 1017.26 1017.57 1017.55 1018.20 1019.12 1020.02 1021.02 1021.93 1022.68 1023.26 1023.87 1024.40 1024.84 1025.26 1025.71 1025.96 1026.18 1026.34 1026.48 1026.78 1026.95 1027.19
1010.83 1010.22 1009.77 1010.09 1010.10 1010.44 1010.63 1011.00 1011.19 1011.80 1012.34 1012.85 1012.80 1012.57 1012.20 1012.25 1012.56 1012.98 1013.37 1014.16 1015.15 1016.18 1016.91 1017.40 1017.41 1017.90 1018.81 1019.79 1020.76 1021.78 1022.47 1023.14 1023.78 1024.21 1024.51 1024.85 1025.39 1025.92 1026.21 1026.40 1026.57 1026.78 1027.08 1027.34
1009.89 1009.46 1009.36 1009.85 1010.09 1010.57 1010.71 1010.91 1011.50 1012.06 1012.91 1013.54 1013.57 1012.84 1012.30 1012.20 1012.19 1012.80 1013.36 1013.92 1014.26 1015.08 1016.12 1016.95 1017.13 1017.56 1018.50 1019.50 1020.43 1021.41 1022.18 1022.96 1023.52 1023.90 1024.31 1024.87 1025.41 1025.94 1026.45 1026.71 1026.92 1026.94 1027.20 1027.42
1009.79 1009.58 1009.81 1010.07 1010.48 1010.87 1011.25 1011.09 1011.59 1012.62 1013.62 1014.26 1013.95 1013.37 1011.99 1011.95 1012.46 1013.02 1013.64 1014.09 1014.44 1014.69 1015.41 1016.21 1016.78 1017.36 1018.13 1019.21 1020.16 1021.02 1021.89 1022.70 1023.31 1023.73 1024.44 1024.94 1025.52 1026.01 1026.29 1026.62 1026.90 1027.15 1027.29 1027.57
1009.76 1010.07 1010.42 1010.83 1010.96 1011.04 1011.76 1011.67 1012.21 1013.24 1014.27 1014.77 1014.77 1014.80 1012.42 1012.07 1013.07 1013.35 1013.79 1014.39 1014.65 1014.76 1015.01 1015.53 1016.34 1017.16 1017.77 1018.81 1019.94 1020.77 1021.62 1022.46 1023.14 1023.75 1024.34 1024.77 1025.26 1025.44 1025.87 1026.43 1026.95 1027.23 1027.43 1027.65
1010.64 1011.10 1011.17 1011.48 1011.79 1011.75 1012.28 1012.78 1013.50 1014.30 1015.33 1015.90 1015.05 1014.91 1012.99 1012.59 1012.32 1013.00 1013.88 1014.57 1014.97 1015.25 1015.31 1015.56 1015.93 1016.80 1017.50 1018.53 1019.64 1020.54 1021.30 1022.28 1023.01 1023.59 1024.08 1024.49 1024.89 1025.42 1026.07 1026.52 1026.98 1027.29 1027.64 1027.87
1011.23 1011.77 1012.25 1012.26 1012.79 1012.94 1012.93 1013.65 1015.08 1016.18 1016.66 1015.87 1014.96 1015.15 1012.86 1012.63 1012.58 1012.45 1013.77 1014.87 1015.46 1015.66 1015.76 1015.85 1015.98 1016.57 1017.39 1018.39 1019.42 1020.39 1021.09 1022.15 1022.86 1023.44 1023.85 1024.32 1024.68 1025.16 1025.83 1026.28 1026.70 1027.11 1027.52 1027.88
1010.91 1012.45 1012.51 1012.58 1012.83 1013.09 1013.65 1013.66 1014.26 1015.24 1016.29 1015.93 1015.83 1014.79 1013.16 1013.34 1013.54 1013.79 1014.46 1015.29 1015.75 1015.97 1016.06 1016.12 1016.24 1016.64 1017.47 1018.50 1019.43 1020.20 1020.93 1021.92 1022.68 1023.20 1023.67 1024.16 1024.55 1025.00 1025.48 1025.90 1026.34 1026.75 1027.16 1027.51
1009.98 1011.93 1012.96 1013.29 1013.41 1013.42 1014.16 1014.12 1013.63 1014.46 1015.61 1015.81 1015.07 1014.21 1014.01 1014.17 1014.67 1015.12 1015.53 1015.92 1016.35 1016.53 1016.59 1016.76 1016.93 1017.17 1017.96 1018.91 1019.60 1020.19 1020.91 1021.74 1022.45 1022.94 1023.43 1024.05 1024.51 1024.91 1025.31 1025.73 1025.97 1026.50 1026.68 1026.93
1009.22 1011.59 1013.39 1014.17 1014.28 1014.29 1014.21 1014.34 1014.49 1014.95 1016.03 1015.73 1014.60 1014.10 1013.72 1014.41 1014.91 1015.62 1016.10 1016.50 1016.88 1017.14 1017.28 1017.49 1017.70 1018.08 1018.60 1019.39 1019.94 1020.38 1020.83 1021.62 1022.27 1022.79 1023.30 1023.91 1024.46 1024.90 1025.27 1025.60 1026.10 1026.41 1026.61 1026.90
1009.53 1010.82 1014.21 1014.70 1014.67 1014.42 1015.06 1014.75 1014.70 1014.80 1015.07 1015.10 1015.05 1013.79 1013.02 1013.33 1014.10 1015.19 1016.12 1016.77 1017.27 1017.76 1018.06 1018.37 1018.64 1019.01 1019.42 1019.91 1020.33 1020.66 1021.10 1021.78 1022.41 1022.83 1023.35 1023.92 1024.47 1024.93 1025.32 1025.70 1026.06 1026.30 1026.50 1026.87
1009.92 1011.19 1013.39 1014.32 1014.84 1015.05 1014.69 1014.60 1014.66 1014.99 1015.45 1015.57 1015.55 1014.10 1013.66 1014.02 1014.25 1015.09 1016.10 1016.93 1017.74 1018.33 1018.92 1019.44 1019.79 1020.13 1020.56 1020.90 1021.23 1021.50 1021.95 1022.47 1022.81 1023.11 1023.59 1024.12 1024.62 1025.06 1025.47 1025.81 1026.05 1026.16 1026.54 1026.72
1010.21 1011.13 1013.32 1014.62 1015.41 1015.38 1015.08 1014.78 1014.81 1014.95 1014.93 1015.33 1015.71 1014.66 1014.46 1014.62 1015.01 1015.73 1016.50 1017.50 1018.39 1019.06 1019.70 1020.26 1020.63 1021.08 1021.52 1021.91 1022.29 1022.64 1023.05 1023.38 1023.46 1023.70 1024.14 1024.56 1024.98 1025.34 1025.67 1025.95 1026.11 1026.22 1026.51 1026.78
1010.48 1010.90 1011.48 1012.51 1012.88 1013.46 1014.67 1014.37 1014.63 1014.83 1015.11 1014.88 1014.38 1014.93 1015.33 1015.58 1015.88 1016.58 1017.30 1018.15 1018.98 1019.75 1020.28 1020.82 1021.32 1021.84 1022.48 1022.99 1023.40 1023.74 1024.02 1024.14 1024.21 1024.37 1024.78 1025.25 1025.58 1025.85 1026.12 1026.34 1026.54 1026.66 1026.79 1027.05
1011.22 1011.41 1011.54 1012.43 1012.95 1013.49 1013.90 1014.06 1014.42 1014.46 1013.82 1014.48 1014.27 1014.55 1014.45 1014.98 1015.65 1016.71 1017.53 1018.75 1019.63 1020.29 1021.02 1021.59 1022.23 1022.81 1023.43 1024.01 1024.44 1024.73 1024.98 1025.10 1025.13 1025.36 1025.74 1026.10 1026.29 1026.49 1026.78 1026.96 1027.17 1027.24 1027.34 1027.45
1011.79 1012.04 1012.22 1012.91 1013.36 1013.90 1014.30 1014.24 1014.39 1014.39 1014.30 1014.05 1014.44 1014.67 1014.31 1014.65 1016.00 1017.38 1017.85 1018.76 1019.84 1020.90 1021.75 1022.50 1023.16 1023.75 1024.33 1024.85 1025.25 1025.53 1025.83 1026.06 1026.12 1026.43 1026.83 1026.91 1027.06 1027.22 1027.45 1027.60 1027.73 1027.79 1027.87 1027.83
1012.48 1012.63 1012.78 1013.37 1013.81 1014.29 1014.37 1013.69 1013.90 1013.81 1013.52 1013.38 1014.24 1013.61 1014.59 1015.60 1015.81 1016.68 1017.61 1018.68 1020.02 1021.28 1022.42 1023.32 1024.05 1024.70 1025.19 1025.52 1025.79 1026.07 1026.35 1026.61 1026.87 1027.18 1027.29 1027.39 1027.58 1027.74 1027.91 1028.01 1028.07 1028.11 1028.15 1028.16
1012.77 1013.01 1013.35 1014.16 1014.23 1014.16 1012.51 1012.71 1012.84 1012.75 1012.78 1013.12 1013.55 1013.90 1014.52 1014.96 1016.07 1017.17 1018.22 1019.13 1020.60 1021.91 1023.09 1024.18 1025.05 1025.77 1026.20 1026.46 1026.55 1026.60 1026.76 1027.08 1027.35 1027.63 1027.72 1027.75 1027.96 1028.14 1028.21 1028.29 1028.37 1028.39 1028.39 1028.41
1013.39 1013.68 1013.97 1014.33 1014.61 1013.38 1012.69 1012.90 1013.09 1013.04 1012.64 1012.99 1013.89 1014.90 1015.79 1016.42 1017.41 1018.95 1019.34 1020.28 1021.50 1022.77 1024.16 1025.46 1026.42 1026.93 1027.21 1027.34 1027.22 1027.26 1027.28 1027.50 1027.79 1028.02 1028.06 1028.18 1028.43 1028.57 1028.59 1028.67 1028.60 1028.63 1028.63 1028.63
1014.04 1014.02 1014.26 1014.83 1014.56 1013.70 1012.89 1012.86 1013.09 1013.41 1014.14 1013.78 1013.87 1015.34 1016.41 1017.33 1018.79 1019.67 1020.91 1021.76 1023.49 1024.65 1025.86 1026.99 1027.65 1027.97 1028.39 1028.54 1028.13 1027.73 1027.89 1028.02 1028.37 1028.64 1028.72 1028.83 1028.95 1028.98 1028.89 1028.86 1028.83 1028.89 1028.87 1028.85
1014.48 1014.58 1014.47 1014.53 1014.60 1013.75 1013.63 1013.82 1013.97 1014.88 1015.70 1015.06 1015.24 1016.19 1017.38 1018.39 1019.30 1020.48 1022.12 1023.80 1025.15 1026.42 1027.48 1028.22 1028.80 1029.41 1029.66 1029.25 1028.64 1028.58 1028.82 1029.30 1029.48 1029.43 1029.35 1029.19 1029.03 1029.00 1029.05 1029.01 1029.00 1028.93 1028.82 1028.70
1013.80 1014.27 1014.62 1015.17 1015.58 1015.82 1015.04 1015.12 1015.75 1016.32 1016.01 1016.12 1016.54 1017.36 1018.74 1019.90 1021.12 1022.45 1023.91 1025.38 1026.88 1028.02 1028.94 1029.51 1029.94 1030.45 1030.52 1030.00 1029.63 1030.02 1030.25 1030.37 1030.19 1029.94 1029.65 1029.50 1029.27 1029.10 1029.04 1029.01 1028.90 1028.76 1028.63 1028.47
1014.44 1014.32 1014.45 1015.13 1015.90 1016.53 1016.82 1017.13 1017.15 1016.92 1017.13 1017.55 1018.18 1019.05 1019.94 1021.22 1022.58 1024.04 1025.59 1027.00 1028.34 1029.30 1030.10 1030.47 1030.83 1031.38 1031.65 1031.47 1031.37 1031.43 1031.33 1030.89 1030.50 1030.15 1030.01 1029.80 1029.51 1029.24 1028.99 1028.86 1028.71 1028.67 1028.56 1028.39
1015.37 1015.35 1015.63 1016.21 1017.60 1018.06 1018.46 1018.67 1018.73 1018.71 1018.87 1019.11 1019.66 1020.39 1021.25 1022.33 1023.96 1025.39 1026.84 1028.23 1029.38 1030.27 1030.94 1031.23 1031.67 1032.40 1032.81 1032.73 1032.23 1032.03 1031.71 1031.23 1030.79 1030.50 1030.27 1029.93 1029.73 1029.40 1029.28 1029.09 1028.81 1028.53 1028.35 1028.17
1018.32 1017.53 1017.67 1018.89 1019.56 1019.86 1020.16 1020.42 1020.58 1020.66 1020.67 1020.87 1021.15 1021.69 1022.66 1023.78 1025.19 1026.33 1027.74 1029.03 1030.12 1031.03 1031.63 1031.99 1032.54 1033.07 1033.31 1033.32 1032.84 1032.50 1032.19 1031.81 1031.46 1031.11 1030.89 1030.68 1030.24 1030.03 1029.74 1029.45 1029.12 1028.66 1028.38 1028.05
1021.90 1021.85 1021.40 1021.42 1021.82 1021.77 1022.12 1022.14 1022.30 1022.56 1022.95 1023.29 1023.50 1024.03 1024.70 1025.36 1026.46 1027.51 1028.67 1029.72 1030.68 1031.60 1032.16 1032.69 1033.12 1033.42 1033.76 1033.77 1033.44 1033.14 1033.01 1032.76 1032.42 1031.99 1031.55 1031.09 1030.64 1030.35 1030.01 1029.78 1029.39 1028.92 1028.40 1027.88
Thickness
5622 5612 5616 5630 5632 5637 5639 5633 5633 5638 5632 5625 5620 5627 5633 5632 5632 5633 5633 5628 5621 5619 5617 5618 5622 5619 5613 5608 5601 5595 5591 5589 5586 5583 5580 5578 5576 5575 5575 5574 5573 5571 5571 5570
5608 5606 5631 5632 5633 5627 5624 5621 5624 5621 5620 5616 5619 5621 5632 5632 5631 5633 5635 5630 5624 5618 5615 5613 5617 5616 5611 5604 5599 5592 5589 5586 5583 5581 5580 5578 5575 5572 5571 5570 5568 5567 5565 5564
5605 5625 5629 5625 5623 5617 5617 5613 5616 5614 5607 5605 5605 5608 5621 5628 5632 5629 5628 5627 5629 5624 5616 5611 5613 5613 5608 5602 5597 5591 5587 5583 5581 5579 5577 5574 5571 5567 5564 5563 5563 5561 5559 5558
5603 5618 5617 5614 5612 5612 5600 5620 5617 5598 5591 5575 5599 5569 5619 5618 5616 5616 5615 5616 5619 5621 5619 5613 5610 5608 5606 5599 5594 5590 5585 5580 5577 5574 5570 5567 5564 5560 5560 5558 5557 5556 5554 5552
5596 5600 5600 5601 5607 5607 5599 5607 5604 5596 5579 5575 5583 5557 5600 5614 5603 5608 5610 5608 5611 5615 5614 5614 5607 5603 5602 5596 5589 5585 5581 5576 5572 5568 5564 5562 5561 5560 5557 5554 5551 5549 5548 5547
5582 5586 5590 5593 5588 5593 5592 5586 5584 5580 5561 5523 5567 5567 5588 5602 5615 5611 5604 5602 5601 5602 5602 5604 5605 5599 5597 5592 5584 5579 5577 5569 5564 5561 5559 5557 5556 5553 5549 5546 5544 5542 5541 5540
5572 5573 5572 5578 5571 5579 5582 5570 5549 5544 5512 5535 5574 5563 5594 5602 5604 5615 5601 5590 5589 5590 5590 5592 5596 5594 5591 5584 5578 5572 5570 5561 5557 5554 5552 5550 5549 5547 5543 5540 5538 5536 5534 5533
5552 5552 5561 5570 5572 5565 5561 5568 5558 5542 5539 5553 5556 5547 5584 5583 5581 5584 5586 5579 5581 5581 5582 5583 5584 5585 5581 5574 5568 5566 5563 5554 5549 5547 5545 5543 5542 5539 5537 5534 5533 5530 5528 5528
5559 5560 5549 5550 5561 5563 5557 5552 5569 5545 5545 5521 5548 5570 5567 5568 5564 5564 5567 5569 5566 5569 5570 5570 5570 5571 5568 5561 5559 5557 5553 5546 5542 5540 5539 5534 5532 5531 5529 5527 5525 5523 5523 5521
5575 5538 5541 5533 5543 5545 5547 5548 5543 5522 5516 5532 5557 5572 5577 5554 5557 5556 5554 5552 5553 5555 5555 5556 5557 5556 5553 5549 5547 5544 5542 5538 5534 5532 5529 5526 5523 5522 5520 5518 5515 5514 5513 5512
5561 5551 5514 5524 5521 5528 5525 5521 5530 5540 5537 5532 5531 5550 5572 5570 5567 5558 5552 5547 5542 5540 5539 5538 5538 5537 5535 5532 5532 5531 5531 5527 5523 5521 5519 5516 5513 5511 5509 5507 5505 5504 5503 5501
5547 5534 5495 5525 5498 5500 5514 5534 5530 5531 5526 5509 5512 5533 5548 5539 5553 5548 5546 5539 5531 5526 5522 5520 5518 5517 5516 5516 5515 5515 5513 5511 5509 5509 5507 5504 5501 5499 5496 5494 5493 5492 5490 5489
5523 5515 5493 5510 5498 5493 5490 5507 5511 5514 5520 5499 5502 5521 5532 5533 5533 5526 5527 5522 5516 5511 5507 5504 5503 5501 5500 5499 5497 5496 5494 5492 5493 5493 5491 5489 5487 5486 5483 5482 5481 5480 5478 5477
5526 5528 5522 5521 5539 5513 5497 5512 5507 5518 5492 5508 5528 5522 5505 5514 5516 5513 5510 5504 5499 5495 5494 5493 5490 5487 5483 5479 5476 5475 5475 5476 5477 5477 5475 5472 5470 5470 5468 5467 5466 5465 5464 5463
5507 5495 5531 5506 5504 5505 5505 5502 5501 5513 5531 5525 5512 5535 5523 5511 5509 5501 5494 5486 5483 5478 5475 5472 5469 5465 5461 5459 5457 5456 5455 5456 5457 5457 5455 5454 5454 5453 5452 5451 5449 5449 5448 5447
5490 5485 5487 5484 5481 5467 5473 5487 5490 5500 5496 5493 5480 5484 5501 5501 5487 5483 5481 5477 5472 5463 5456 5451 5448 5446 5443 5441 5439 5438 5437 5437 5438 5437 5435 5436 5436 5435 5434 5433 5432 5432 5431 5432
5470 5470 5480 5489 5474 5463 5462 5460 5485 5486 5493 5516 5498 5525 5488 5483 5485 5480 5472 5466 5457 5448 5440 5435 5433 5429 5428 5427 5427 5424 5423 5423 5421 5420 5419 5419 5418 5417 5417 5416 5415 5415 5414 5413
5461 5460 5462 5444 5461 5480 5492 5456 5466 5497 5487 5487 5473 5472 5478 5475 5463 5462 5455 5451 5441 5431 5426 5423 5419 5414 5409 5408 5408 5409 5409 5407 5406 5404 5404 5404 5401 5400 5399 5398 5396 5396 5396 5394
5443 5446 5447 5455 5443 5478 5496 5456 5453 5467 5483 5475 5466 5448 5448 5445 5444 5429 5437 5431 5426 5421 5411 5398 5390 5387 5390 5392 5392 5393 5395 5393 5390 5389 5388 5386 5383 5380 5379 5378 5377 5377 5375 5374
5430 5433 5436 5418 5432 5435 5470 5455 5454 5447 5441 5446 5451 5439 5435 5438 5434 5433 5410 5404 5391 5386 5380 5373 5371 5373 5367 5367 5371 5379 5378 5376 5372 5368 5366 5364 5363 5361 5361 5359 5358 5356 5354 5353
5409 5410 5418 5418 5411 5439 5436 5432 5432 5436 5441 5429 5432 5426 5421 5412 5414 5401 5388 5376 5368 5362 5357 5353 5350 5346 5342 5348 5354 5358 5352 5345 5343 5342 5342 5342 5343 5342 5340 5338 5335 5334 5332 5332
5412 5413 5401 5410 5390 5411 5405 5417 5421 5405 5408 5413 5410 5405 5393 5386 5379 5370 5363 5354 5345 5339 5334 5330 5329 5324 5323 5328 5331 5326 5323 5320 5320 5321 5321 5320 5320 5320 5318 5316 5313 5312 5310 5309
5399 5410 5413 5420 5408 5376 5374 5377 5385 5391 5391 5390 5382 5378 5374 5366 5359 5348 5336 5328 5320 5315 5311 5305 5307 5302 5299 5300 5299 5297 5296 5298 5299 5299 5297 5296 5296 5296 5296 5294 5292 5289 5287 5285
5392 5385 5390 5388 5366 5359 5357 5355 5358 5362 5363 5364 5360 5355 5352 5345 5334 5324 5315 5306 5297 5291 5288 5283 5284 5279 5275 5273 5275 5273 5274 5275 5275 5275 5273 5273 5271 5272 5269 5268 5267 5266 5264 5262
5344 5361 5376 5343 5332 5332 5335 5333 5332 5332 5335 5337 5337 5335 5327 5318 5309 5301 5291 5282 5273 5268 5262 5260 5259 5253 5250 5249 5250 5250 5250 5250 5250 5249 5246 5244 5245 5242 5242 5242 5240 5241 5240 5239
5292 5294 5314 5316 5300 5305 5307 5307 5307 5303 5300 5298 5297 5294 5292 5288 5280 5273 5264 5257 5248 5243 5238 5237 5234 5232 5228 5227 5225 5224 5223 5221 5219 5221 5220 5219 5218 5216 5217 5215 5214 5215 5218 5219